| time (UTC) | temp F | wind direction | speed MPH | gust MPH | rain 1hr in | rain 24hr in | rain mn in | humidity % | barometer mb |
| 20260508235710 | 68 | 264 | 2.0 | 4.0 | 0.00 | 0.00 | 0.00 | 70 | 1016.5 |
| 20260508235206 | 68 | 292 | 3.0 | 4.0 | 0.00 | 0.00 | 0.00 | 69 | 1016.5 |
| 20260508234704 | 67 | 257 | 1.0 | 8.0 | 0.00 | 0.00 | 0.00 | 73 | 1016.6 |
| 20260508234200 | 67 | 275 | 3.0 | 5.0 | 0.00 | 0.00 | 0.00 | 71 | 1016.6 |
| 20260508233654 | 69 | 267 | 3.0 | 8.0 | 0.00 | 0.00 | 0.00 | 68 | 1016.6 |
| 20260508233151 | 69 | 207 | 1.0 | 3.0 | 0.00 | 0.00 | 0.00 | 69 | 1016.7 |
| 20260508232648 | 68 | 259 | 2.0 | 5.0 | 0.00 | 0.00 | 0.00 | 71 | 1016.6 |
| 20260508232145 | 69 | 237 | 4.0 | 5.0 | 0.00 | 0.00 | 0.00 | 66 | 1016.7 |
| 20260508231643 | 69 | 260 | 1.0 | 4.0 | 0.00 | 0.00 | 0.00 | 69 | 1016.7 |
| 20260508231139 | 69 | 261 | 3.0 | 4.0 | 0.00 | 0.00 | 0.00 | 70 | 1016.7 |
| 20260508230636 | 68 | 261 | 4.0 | 8.0 | 0.00 | 0.00 | 0.00 | 68 | 1016.9 |
| 20260508230132 | 70 | 177 | 2.0 | 5.0 | 0.00 | 0.00 | 0.00 | 68 | 1017.1 |
| 20260508225631 | 69 | 236 | 3.0 | 5.0 | 0.00 | 0.00 | 0.00 | 69 | 1017.0 |
| 20260508225126 | 68 | 260 | 2.0 | 7.0 | 0.00 | 0.00 | 0.00 | 71 | 1017.0 |
| 20260508224624 | 69 | 184 | 2.0 | 5.0 | 0.00 | 0.00 | 0.00 | 70 | 1017.1 |
| 20260508224122 | 69 | 262 | 3.0 | 4.0 | 0.00 | 0.00 | 0.00 | 72 | 1017.2 |
| 20260508223619 | 69 | 236 | 3.0 | 4.0 | 0.00 | 0.00 | 0.00 | 69 | 1017.2 |
| 20260508223116 | 70 | 239 | 3.0 | 4.0 | 0.00 | 0.00 | 0.00 | 67 | 1017.3 |
| 20260508222613 | 68 | 263 | 3.0 | 5.0 | 0.00 | 0.00 | 0.00 | 68 | 1017.3 |
| 20260508222110 | 69 | 254 | 1.0 | 5.0 | 0.00 | 0.00 | 0.00 | 70 | 1017.4 |
| 20260508221606 | 69 | 234 | 1.0 | 3.0 | 0.00 | 0.00 | 0.00 | 71 | 1017.4 |
| 20260508221102 | 69 | 296 | 0.0 | 5.0 | 0.00 | 0.00 | 0.00 | 70 | 1017.5 |
| 20260508220559 | 68 | 248 | 1.0 | 5.0 | 0.00 | 0.00 | 0.00 | 71 | 1017.7 |
| 20260508220055 | 69 | 279 | 3.0 | 7.0 | 0.00 | 0.00 | 0.00 | 71 | 1017.6 |
| 20260508215552 | 69 | 227 | 1.0 | 7.0 | 0.00 | 0.00 | 0.00 | 69 | 1017.6 |
| 20260508215049 | 68 | 242 | 1.0 | 5.0 | 0.00 | 0.00 | 0.00 | 70 | 1017.6 |
| 20260508214547 | 67 | 241 | 3.0 | 10.0 | 0.00 | 0.00 | 0.00 | 75 | 1017.6 |
| 20260508214043 | 68 | 236 | 4.0 | 8.0 | 0.00 | 0.00 | 0.00 | 74 | 1017.7 |
| 20260508213540 | 70 | 249 | 2.0 | 7.0 | 0.00 | 0.00 | 0.00 | 68 | 1017.6 |
| 20260508213036 | 70 | 285 | 3.0 | 8.0 | 0.00 | 0.00 | 0.00 | 68 | 1017.7 |
| 20260508212532 | 70 | 249 | 1.0 | 4.0 | 0.00 | 0.00 | 0.00 | 69 | 1017.7 |
| 20260508212029 | 71 | 268 | 5.0 | 8.0 | 0.00 | 0.00 | 0.00 | 69 | 1017.7 |
| 20260508211525 | 69 | 247 | 3.0 | 4.0 | 0.00 | 0.00 | 0.00 | 70 | 1017.8 |
| 20260508211021 | 69 | 232 | 1.0 | 10.0 | 0.00 | 0.00 | 0.00 | 72 | 1017.8 |
| 20260508210518 | 69 | 278 | 4.0 | 7.0 | 0.00 | 0.00 | 0.00 | 71 | 1017.9 |
| 20260508210016 | 69 | 250 | 5.0 | 5.0 | 0.00 | 0.00 | 0.00 | 71 | 1017.9 |
| 20260508205513 | 70 | 254 | 5.0 | 5.0 | 0.00 | 0.00 | 0.00 | 68 | 1018.0 |
| 20260508205009 | 69 | 257 | 1.0 | 4.0 | 0.00 | 0.00 | 0.00 | 70 | 1017.9 |
| 20260508204506 | 70 | 227 | 0.0 | 5.0 | 0.00 | 0.00 | 0.00 | 68 | 1018.0 |
| 20260508204001 | 69 | 309 | 0.0 | 3.0 | 0.00 | 0.00 | 0.00 | 68 | 1017.9 |
| 20260508203457 | 68 | 228 | 2.0 | 5.0 | 0.00 | 0.00 | 0.00 | 70 | 1018.0 |
| 20260508202953 | 69 | 232 | 2.0 | 7.0 | 0.00 | 0.00 | 0.00 | 69 | 1018.1 |
| 20260508202450 | 69 | 262 | 1.0 | 4.0 | 0.00 | 0.00 | 0.00 | 69 | 1018.1 |
| 20260508201947 | 66 | 211 | 0.0 | 0.0 | 0.00 | 0.00 | 0.00 | 72 | 1018.2 |
| 20260508201444 | 66 | 264 | 4.0 | 7.0 | 0.00 | 0.00 | 0.00 | 73 | 1018.3 |
| 20260508200941 | 68 | 196 | 4.0 | 5.0 | 0.00 | 0.00 | 0.00 | 71 | 1018.5 |
| 20260508200438 | 67 | 239 | 5.0 | 7.0 | 0.00 | 0.00 | 0.00 | 73 | 1018.3 |
| 20260508195932 | 67 | 192 | 2.0 | 3.0 | 0.00 | 0.00 | 0.00 | 72 | 1018.5 |
| 20260508195430 | 66 | 236 | 0.0 | 3.0 | 0.00 | 0.00 | 0.00 | 74 | 1018.6 |
| 20260508194926 | 66 | 225 | 3.0 | 5.0 | 0.00 | 0.00 | 0.00 | 75 | 1018.5 |
| 20260508194424 | 65 | 224 | 0.0 | 3.0 | 0.00 | 0.00 | 0.00 | 76 | 1018.5 |
| 20260508193920 | 66 | 256 | 7.0 | 10.0 | 0.00 | 0.00 | 0.00 | 75 | 1018.7 |
| 20260508193417 | 66 | 229 | 0.0 | 3.0 | 0.00 | 0.00 | 0.00 | 74 | 1018.7 |
| 20260508192913 | 64 | 241 | 2.0 | 3.0 | 0.00 | 0.00 | 0.00 | 80 | 1018.6 |
| 20260508192410 | 64 | 228 | 0.0 | 3.0 | 0.00 | 0.00 | 0.00 | 76 | 1018.7 |
| 20260508191907 | 63 | 70 | 0.0 | 3.0 | 0.00 | 0.00 | 0.00 | 78 | 1018.7 |
| 20260508191406 | 63 | 263 | 7.0 | 10.0 | 0.00 | 0.00 | 0.00 | 78 | 1018.6 |
| 20260508190902 | 64 | 170 | 0.0 | 3.0 | 0.00 | 0.00 | 0.00 | 76 | 1018.8 |
| 20260508190359 | 64 | 244 | 6.0 | 8.0 | 0.00 | 0.00 | 0.00 | 79 | 1018.8 |
| 20260508185854 | 64 | 253 | 1.0 | 3.0 | 0.00 | 0.00 | 0.00 | 78 | 1018.8 |
| 20260508185352 | 63 | 247 | 1.0 | 7.0 | 0.00 | 0.00 | 0.00 | 78 | 1018.7 |
| 20260508184850 | 63 | 245 | 1.0 | 3.0 | 0.00 | 0.00 | 0.00 | 80 | 1018.9 |
| 20260508184347 | 63 | 246 | 1.0 | 3.0 | 0.00 | 0.00 | 0.00 | 79 | 1018.9 |
| 20260508183843 | 62 | 107 | 0.0 | 3.0 | 0.00 | 0.00 | 0.00 | 79 | 1018.9 |
| 20260508183340 | 61 | 245 | 0.0 | 7.0 | 0.00 | 0.00 | 0.00 | 82 | 1019.1 |
| 20260508182836 | 62 | 235 | 2.0 | 4.0 | 0.00 | 0.00 | 0.00 | 81 | 1019.1 |
| 20260508182333 | 62 | 232 | 4.0 | 7.0 | 0.00 | 0.00 | 0.00 | 81 | 1019.0 |
| 20260508181828 | 63 | 254 | 1.0 | 4.0 | 0.00 | 0.00 | 0.00 | 79 | 1018.8 |
| 20260508181325 | 62 | 259 | 3.0 | 4.0 | 0.00 | 0.00 | 0.00 | 80 | 1019.0 |
| 20260508180822 | 61 | 260 | 1.0 | 4.0 | 0.00 | 0.00 | 0.00 | 82 | 1019.2 |
| 20260508180319 | 61 | 246 | 4.0 | 7.0 | 0.00 | 0.00 | 0.00 | 81 | 1019.2 |
| 20260508175815 | 62 | 258 | 1.0 | 7.0 | 0.00 | 0.00 | 0.00 | 79 | 1019.2 |
| 20260508175312 | 62 | 251 | 0.0 | 4.0 | 0.00 | 0.00 | 0.00 | 79 | 1019.1 |
| 20260508174810 | 61 | 228 | 1.0 | 5.0 | 0.00 | 0.00 | 0.00 | 81 | 1019.1 |
| 20260508174307 | 59 | 254 | 0.0 | 3.0 | 0.00 | 0.00 | 0.00 | 84 | 1019.2 |
| 20260508173803 | 59 | 240 | 4.0 | 5.0 | 0.00 | 0.00 | 0.00 | 84 | 1019.1 |
| 20260508173300 | 59 | 238 | 0.0 | 3.0 | 0.00 | 0.00 | 0.00 | 86 | 1018.9 |
| 20260508172756 | 59 | 240 | 1.0 | 3.0 | 0.00 | 0.00 | 0.00 | 84 | 1019.0 |
| 20260508172254 | 59 | 197 | 0.0 | 3.0 | 0.00 | 0.00 | 0.00 | 86 | 1019.0 |
| 20260508171750 | 58 | 198 | 2.0 | 3.0 | 0.00 | 0.00 | 0.00 | 87 | 1019.0 |
| 20260508171246 | 57 | 245 | 0.0 | 1.0 | 0.00 | 0.00 | 0.00 | 89 | 1019.0 |
| 20260508170743 | 57 | 245 | 0.0 | 3.0 | 0.00 | 0.00 | 0.00 | 90 | 1019.0 |
| 20260508170241 | 56 | 242 | 0.0 | 0.0 | 0.00 | 0.00 | 0.00 | 91 | 1018.9 |
| 20260508165738 | 55 | 243 | 0.0 | 0.0 | 0.00 | 0.00 | 0.00 | 95 | 1018.9 |
| 20260508165235 | 54 | 240 | 0.0 | 0.0 | 0.00 | 0.00 | 0.00 | 99 | 1019.0 |
| 20260508164731 | 53 | 247 | 0.0 | 0.0 | 0.00 | 0.00 | 0.00 | 99 | 1018.9 |
| 20260508164228 | 53 | 246 | 0.0 | 0.0 | 0.00 | 0.00 | 0.00 | 99 | 1019.0 |
| 20260508163726 | 53 | 247 | 0.0 | 0.0 | 0.00 | 0.00 | 0.00 | 99 | 1019.0 |
| 20260508163223 | 53 | 251 | 0.0 | 1.0 | 0.00 | 0.00 | 0.00 | 99 | 1019.0 |
| 20260508162719 | 52 | 251 | 0.0 | 3.0 | 0.00 | 0.00 | 0.00 | 99 | 1018.9 |
| 20260508162216 | 51 | 265 | 0.0 | 3.0 | 0.00 | 0.00 | 0.00 | 99 | 1018.9 |
| 20260508161713 | 52 | 232 | 3.0 | 4.0 | 0.00 | 0.00 | 0.00 | 99 | 1018.8 |
| 20260508161210 | 52 | 256 | 0.0 | 0.0 | 0.00 | 0.00 | 0.00 | 99 | 1018.6 |
| 20260508160708 | 52 | 248 | 0.0 | 0.0 | 0.00 | 0.00 | 0.00 | 99 | 1018.7 |
| 20260508160206 | 51 | 243 | 0.0 | 0.0 | 0.00 | 0.00 | 0.00 | 99 | 1018.6 |
| 20260508155702 | 51 | 256 | 0.0 | 3.0 | 0.00 | 0.00 | 0.00 | 99 | 1018.7 |
| 20260508155159 | 51 | 267 | 0.0 | 0.0 | 0.00 | 0.00 | 0.00 | 99 | 1018.6 |
| 20260508154657 | 51 | 294 | 0.0 | 0.0 | 0.00 | 0.00 | 0.00 | 99 | 1018.6 |
| 20260508154153 | 51 | 253 | 0.0 | 0.0 | 0.00 | 0.00 | 0.00 | 99 | 1018.7 |
| 20260508153650 | 51 | 253 | 0.0 | 0.0 | 0.00 | 0.00 | 0.00 | 99 | 1018.7 |
| 20260508153147 | 50 | 253 | 0.0 | 0.0 | 0.00 | 0.00 | 0.00 | 99 | 1018.8 |
| 20260508152644 | 50 | 253 | 0.0 | 0.0 | 0.00 | 0.00 | 0.00 | 99 | 1018.8 |
| 20260508152139 | 50 | 262 | 0.0 | 1.0 | 0.00 | 0.00 | 0.00 | 99 | 1018.8 |
| 20260508151636 | 50 | 262 | 0.0 | 0.0 | 0.00 | 0.00 | 0.00 | 99 | 1018.6 |
| 20260508151133 | 50 | 263 | 0.0 | 0.0 | 0.00 | 0.00 | 0.00 | 99 | 1018.6 |
| 20260508150630 | 50 | 257 | 0.0 | 0.0 | 0.00 | 0.00 | 0.00 | 99 | 1018.8 |
| 20260508150126 | 50 | 249 | 3.0 | 3.0 | 0.00 | 0.00 | 0.00 | 99 | 1018.6 |
| 20260508145622 | 50 | 248 | 0.0 | 0.0 | 0.00 | 0.00 | 0.00 | 99 | 1018.5 |
| 20260508145119 | 50 | 250 | 0.0 | 0.0 | 0.00 | 0.00 | 0.00 | 99 | 1018.6 |
| 20260508144617 | 50 | 250 | 0.0 | 0.0 | 0.00 | 0.00 | 0.00 | 99 | 1018.5 |
| 20260508144114 | 50 | 250 | 0.0 | 0.0 | 0.00 | 0.00 | 0.00 | 99 | 1018.5 |
| 20260508143611 | 50 | 255 | 0.0 | 0.0 | 0.00 | 0.00 | 0.00 | 99 | 1018.3 |
| 20260508143108 | 50 | 239 | 0.0 | 0.0 | 0.00 | 0.00 | 0.00 | 99 | 1018.2 |
| 20260508142604 | 49 | 235 | 0.0 | 0.0 | 0.00 | 0.00 | 0.00 | 99 | 1018.2 |
| 20260508142101 | 49 | 234 | 0.0 | 0.0 | 0.00 | 0.00 | 0.00 | 99 | 1018.2 |
| 20260508141558 | 49 | 208 | 0.0 | 0.0 | 0.00 | 0.00 | 0.00 | 99 | 1018.1 |
| 20260508141055 | 49 | 208 | 0.0 | 0.0 | 0.00 | 0.00 | 0.00 | 99 | 1018.3 |
| 20260508140553 | 49 | 264 | 0.0 | 0.0 | 0.00 | 0.00 | 0.00 | 99 | 1018.2 |
| 20260508140049 | 49 | 234 | 0.0 | 0.0 | 0.00 | 0.00 | 0.00 | 99 | 1018.2 |
| 20260508135544 | 49 | 253 | 0.0 | 0.0 | 0.00 | 0.00 | 0.00 | 99 | 1018.2 |
| 20260508135041 | 49 | 225 | 0.0 | 1.0 | 0.00 | 0.00 | 0.00 | 99 | 1018.1 |
| 20260508134537 | 49 | 209 | 1.0 | 3.0 | 0.00 | 0.00 | 0.00 | 99 | 1018.1 |
| 20260508134035 | 49 | 266 | 0.0 | 0.0 | 0.00 | 0.00 | 0.00 | 99 | 1018.1 |
| 20260508133531 | 49 | 266 | 0.0 | 0.0 | 0.00 | 0.00 | 0.00 | 99 | 1018.1 |
| 20260508133029 | 49 | 266 | 0.0 | 0.0 | 0.00 | 0.00 | 0.00 | 99 | 1018.0 |
| 20260508132527 | 49 | 265 | 0.0 | 0.0 | 0.00 | 0.00 | 0.00 | 99 | 1018.1 |
| 20260508132023 | 49 | 265 | 0.0 | 0.0 | 0.00 | 0.00 | 0.00 | 99 | 1018.0 |
| 20260508131518 | 49 | 265 | 0.0 | 0.0 | 0.00 | 0.00 | 0.00 | 99 | 1018.0 |
| 20260508131015 | 49 | 266 | 0.0 | 1.0 | 0.00 | 0.00 | 0.00 | 99 | 1018.0 |
| 20260508130513 | 49 | 265 | 0.0 | 0.0 | 0.00 | 0.00 | 0.00 | 99 | 1017.8 |
| 20260508130009 | 49 | 265 | 0.0 | 1.0 | 0.00 | 0.00 | 0.00 | 99 | 1017.8 |
| 20260508125505 | 49 | 254 | 0.0 | 3.0 | 0.00 | 0.00 | 0.00 | 99 | 1017.8 |
| 20260508125003 | 49 | 262 | 0.0 | 1.0 | 0.00 | 0.00 | 0.00 | 99 | 1017.8 |
| 20260508124500 | 49 | 287 | 0.0 | 1.0 | 0.00 | 0.00 | 0.00 | 99 | 1017.8 |
| 20260508123957 | 49 | 251 | 0.0 | 0.0 | 0.00 | 0.00 | 0.00 | 99 | 1017.8 |
| 20260508123456 | 49 | 251 | 0.0 | 0.0 | 0.00 | 0.00 | 0.00 | 99 | 1017.7 |
| 20260508122952 | 49 | 238 | 0.0 | 1.0 | 0.00 | 0.00 | 0.00 | 99 | 1017.8 |
| 20260508122449 | 49 | 260 | 0.0 | 4.0 | 0.00 | 0.00 | 0.00 | 99 | 1017.8 |
| 20260508121946 | 49 | 246 | 0.0 | 3.0 | 0.00 | 0.00 | 0.00 | 99 | 1017.8 |
| 20260508121444 | 49 | 188 | 0.0 | 0.0 | 0.00 | 0.00 | 0.00 | 99 | 1017.7 |
| 20260508120942 | 49 | 188 | 0.0 | 0.0 | 0.00 | 0.00 | 0.00 | 99 | 1017.6 |
| 20260508120439 | 50 | 209 | 0.0 | 0.0 | 0.00 | 0.00 | 0.00 | 99 | 1017.7 |
| 20260508115937 | 50 | 269 | 0.0 | 1.0 | 0.00 | 0.00 | 0.00 | 99 | 1017.9 |
| 20260508115435 | 50 | 72 | 0.0 | 0.0 | 0.00 | 0.00 | 0.00 | 99 | 1017.8 |
| 20260508114931 | 49 | 72 | 0.0 | 0.0 | 0.00 | 0.00 | 0.00 | 99 | 1017.8 |
| 20260508114428 | 49 | 72 | 0.0 | 0.0 | 0.00 | 0.00 | 0.00 | 99 | 1017.8 |
| 20260508113924 | 50 | 260 | 0.0 | 0.0 | 0.00 | 0.00 | 0.00 | 99 | 1017.8 |
| 20260508113422 | 50 | 259 | 0.0 | 0.0 | 0.00 | 0.00 | 0.00 | 99 | 1017.7 |
| 20260508112919 | 50 | 275 | 0.0 | 0.0 | 0.00 | 0.00 | 0.00 | 99 | 1017.8 |
| 20260508112416 | 50 | 271 | 0.0 | 0.0 | 0.00 | 0.00 | 0.00 | 99 | 1017.7 |
| 20260508111913 | 50 | 257 | 0.0 | 1.0 | 0.00 | 0.00 | 0.00 | 99 | 1017.8 |
| 20260508111410 | 50 | 257 | 0.0 | 1.0 | 0.00 | 0.00 | 0.00 | 99 | 1017.8 |
| 20260508110907 | 50 | 238 | 0.0 | 0.0 | 0.00 | 0.00 | 0.00 | 99 | 1017.9 |
| 20260508110404 | 50 | 238 | 0.0 | 0.0 | 0.00 | 0.00 | 0.00 | 99 | 1018.0 |
| 20260508105858 | 50 | 230 | 0.0 | 0.0 | 0.00 | 0.00 | 0.00 | 99 | 1017.9 |
| 20260508105355 | 50 | 258 | 0.0 | 1.0 | 0.00 | 0.00 | 0.00 | 99 | 1017.9 |
| 20260508104853 | 50 | 261 | 0.0 | 0.0 | 0.00 | 0.00 | 0.00 | 99 | 1017.9 |
| 20260508104350 | 50 | 204 | 2.0 | 3.0 | 0.00 | 0.00 | 0.00 | 99 | 1018.0 |
| 20260508103847 | 50 | 276 | 0.0 | 3.0 | 0.00 | 0.00 | 0.00 | 99 | 1018.0 |
| 20260508103343 | 50 | 275 | 0.0 | 1.0 | 0.00 | 0.00 | 0.00 | 99 | 1017.8 |
| 20260508102841 | 50 | 248 | 1.0 | 3.0 | 0.00 | 0.00 | 0.00 | 99 | 1017.8 |
| 20260508102339 | 50 | 244 | 0.0 | 0.0 | 0.00 | 0.00 | 0.00 | 99 | 1017.8 |
| 20260508101836 | 50 | 210 | 0.0 | 0.0 | 0.00 | 0.00 | 0.00 | 99 | 1017.9 |
| 20260508101333 | 50 | 254 | 0.0 | 0.0 | 0.00 | 0.00 | 0.00 | 99 | 1017.8 |
| 20260508100831 | 50 | 253 | 0.0 | 0.0 | 0.00 | 0.00 | 0.00 | 99 | 1017.8 |
| 20260508100329 | 50 | 271 | 0.0 | 1.0 | 0.00 | 0.00 | 0.00 | 99 | 1017.9 |
| 20260508095824 | 50 | 260 | 0.0 | 0.0 | 0.00 | 0.00 | 0.00 | 99 | 1017.9 |
| 20260508095322 | 50 | 253 | 0.0 | 0.0 | 0.00 | 0.00 | 0.00 | 99 | 1017.9 |
| 20260508094819 | 50 | 284 | 0.0 | 0.0 | 0.00 | 0.00 | 0.00 | 99 | 1017.8 |
| 20260508094316 | 50 | 258 | 0.0 | 1.0 | 0.00 | 0.00 | 0.00 | 99 | 1017.9 |
| 20260508093813 | 50 | 255 | 0.0 | 3.0 | 0.00 | 0.00 | 0.00 | 99 | 1017.8 |
| 20260508093311 | 50 | 257 | 1.0 | 1.0 | 0.00 | 0.00 | 0.00 | 99 | 1017.9 |
| 20260508092808 | 50 | 253 | 0.0 | 0.0 | 0.00 | 0.00 | 0.00 | 99 | 1017.9 |
| 20260508092313 | 50 | 258 | 0.0 | 0.0 | 0.00 | 0.00 | 0.00 | 99 | 1017.8 |
| 20260508091804 | 50 | 263 | 0.0 | 1.0 | 0.00 | 0.00 | 0.00 | 99 | 1017.9 |
| 20260508091300 | 50 | 250 | 0.0 | 1.0 | 0.00 | 0.00 | 0.00 | 99 | 1017.9 |
| 20260508090758 | 50 | 245 | 0.0 | 0.0 | 0.00 | 0.00 | 0.00 | 99 | 1017.8 |
| 20260508090256 | 50 | 257 | 0.0 | 0.0 | 0.00 | 0.00 | 0.00 | 99 | 1017.9 |
| 20260508085751 | 50 | 255 | 0.0 | 0.0 | 0.00 | 0.00 | 0.00 | 99 | 1017.9 |
| 20260508085248 | 50 | 256 | 0.0 | 0.0 | 0.00 | 0.00 | 0.00 | 99 | 1017.8 |
| 20260508084743 | 50 | 256 | 0.0 | 0.0 | 0.00 | 0.00 | 0.00 | 99 | 1017.7 |
| 20260508084241 | 50 | 253 | 0.0 | 0.0 | 0.00 | 0.00 | 0.00 | 99 | 1017.7 |
| 20260508083738 | 50 | 265 | 0.0 | 0.0 | 0.00 | 0.00 | 0.00 | 99 | 1017.8 |
| 20260508083236 | 50 | 261 | 0.0 | 0.0 | 0.00 | 0.00 | 0.00 | 99 | 1017.9 |
| 20260508082731 | 50 | 259 | 0.0 | 0.0 | 0.00 | 0.00 | 0.00 | 99 | 1017.9 |
| 20260508082229 | 50 | 247 | 0.0 | 1.0 | 0.00 | 0.00 | 0.00 | 99 | 1017.9 |
| 20260508081726 | 50 | 267 | 1.0 | 4.0 | 0.00 | 0.00 | 0.00 | 99 | 1018.0 |
| 20260508081222 | 50 | 263 | 0.0 | 1.0 | 0.00 | 0.00 | 0.00 | 99 | 1017.8 |
| 20260508080720 | 50 | 255 | 0.0 | 1.0 | 0.00 | 0.00 | 0.00 | 99 | 1017.9 |
| 20260508080218 | 50 | 253 | 0.0 | 3.0 | 0.00 | 0.00 | 0.00 | 99 | 1017.9 |
| 20260508075714 | 50 | 275 | 0.0 | 0.0 | 0.00 | 0.00 | 0.00 | 99 | 1017.8 |
| 20260508075211 | 50 | 248 | 0.0 | 0.0 | 0.00 | 0.00 | 0.00 | 99 | 1018.0 |
| 20260508074709 | 50 | 264 | 0.0 | 3.0 | 0.00 | 0.00 | 0.00 | 99 | 1018.1 |
| 20260508074207 | 51 | 237 | 2.0 | 3.0 | 0.00 | 0.00 | 0.00 | 99 | 1018.0 |
| 20260508073703 | 50 | 261 | 0.0 | 3.0 | 0.00 | 0.00 | 0.00 | 99 | 1017.9 |
| 20260508073201 | 51 | 238 | 0.0 | 1.0 | 0.00 | 0.00 | 0.00 | 99 | 1018.0 |
| 20260508072656 | 51 | 249 | 0.0 | 0.0 | 0.00 | 0.00 | 0.00 | 99 | 1017.9 |
| 20260508072153 | 51 | 267 | 0.0 | 3.0 | 0.00 | 0.00 | 0.00 | 99 | 1017.8 |
| 20260508071651 | 51 | 242 | 0.0 | 0.0 | 0.00 | 0.00 | 0.00 | 99 | 1017.8 |
| 20260508071150 | 51 | 263 | 1.0 | 3.0 | 0.00 | 0.00 | 0.00 | 99 | 1017.8 |
| 20260508070646 | 51 | 258 | 0.0 | 3.0 | 0.00 | 0.00 | 0.00 | 99 | 1017.8 |
| 20260508070145 | 51 | 273 | 1.0 | 4.0 | 0.00 | 0.00 | 0.00 | 99 | 1017.9 |
| 20260508065642 | 51 | 251 | 0.0 | 3.0 | 0.00 | 0.00 | 0.00 | 99 | 1017.8 |
| 20260508065140 | 51 | 254 | 2.0 | 3.0 | 0.00 | 0.00 | 0.00 | 99 | 1018.0 |
| 20260508064637 | 51 | 252 | 0.0 | 0.0 | 0.00 | 0.00 | 0.00 | 99 | 1017.8 |
| 20260508064135 | 51 | 244 | 0.0 | 3.0 | 0.00 | 0.00 | 0.00 | 99 | 1017.9 |
| 20260508063632 | 51 | 240 | 1.0 | 3.0 | 0.00 | 0.00 | 0.00 | 99 | 1017.8 |
| 20260508063130 | 51 | 262 | 1.0 | 5.0 | 0.00 | 0.00 | 0.00 | 99 | 1017.9 |
| 20260508062627 | 51 | 221 | 0.0 | 3.0 | 0.00 | 0.00 | 0.00 | 99 | 1017.9 |
| 20260508062124 | 51 | 257 | 0.0 | 1.0 | 0.00 | 0.00 | 0.00 | 99 | 1017.8 |
| 20260508061621 | 51 | 263 | 0.0 | 4.0 | 0.00 | 0.00 | 0.00 | 99 | 1018.0 |
| 20260508061119 | 51 | 240 | 1.0 | 5.0 | 0.00 | 0.00 | 0.00 | 99 | 1018.0 |
| 20260508060615 | 51 | 243 | 0.0 | 3.0 | 0.00 | 0.00 | 0.00 | 99 | 1017.9 |
| 20260508060112 | 51 | 243 | 0.0 | 5.0 | 0.00 | 0.00 | 0.00 | 99 | 1018.0 |
| 20260508055607 | 51 | 247 | 3.0 | 4.0 | 0.00 | 0.00 | 0.00 | 99 | 1018.1 |
| 20260508055105 | 51 | 262 | 2.0 | 5.0 | 0.00 | 0.00 | 0.00 | 99 | 1018.0 |
| 20260508054601 | 51 | 254 | 1.0 | 4.0 | 0.00 | 0.00 | 0.00 | 98 | 1017.9 |
| 20260508054059 | 51 | 265 | 4.0 | 5.0 | 0.00 | 0.00 | 0.00 | 98 | 1018.0 |
| 20260508053555 | 51 | 242 | 1.0 | 3.0 | 0.00 | 0.00 | 0.00 | 98 | 1017.9 |
| 20260508053054 | 51 | 250 | 0.0 | 3.0 | 0.00 | 0.00 | 0.00 | 98 | 1018.0 |
| 20260508052551 | 51 | 272 | 1.0 | 4.0 | 0.00 | 0.00 | 0.00 | 98 | 1018.0 |
| 20260508052048 | 52 | 267 | 3.0 | 4.0 | 0.00 | 0.00 | 0.00 | 98 | 1018.0 |
| 20260508051543 | 51 | 247 | 0.0 | 4.0 | 0.00 | 0.00 | 0.00 | 98 | 1018.1 |
| 20260508051038 | 51 | 233 | 0.0 | 5.0 | 0.00 | 0.00 | 0.00 | 97 | 1018.0 |
| 20260508050535 | 52 | 264 | 2.0 | 3.0 | 0.00 | 0.00 | 0.00 | 97 | 1018.0 |
| 20260508050033 | 52 | 262 | 2.0 | 4.0 | 0.00 | 0.00 | 0.00 | 97 | 1018.0 |
| 20260508045529 | 52 | 262 | 0.0 | 3.0 | 0.00 | 0.00 | 0.00 | 97 | 1018.0 |
| 20260508045027 | 52 | 241 | 3.0 | 4.0 | 0.00 | 0.00 | 0.00 | 97 | 1017.9 |
| 20260508044524 | 52 | 85 | 0.0 | 4.0 | 0.00 | 0.00 | 0.00 | 97 | 1018.0 |
| 20260508044019 | 52 | 258 | 0.0 | 0.0 | 0.00 | 0.00 | 0.00 | 97 | 1017.9 |
| 20260508043516 | 52 | 227 | 0.0 | 1.0 | 0.00 | 0.00 | 0.00 | 97 | 1017.9 |
| 20260508043014 | 52 | 227 | 1.0 | 3.0 | 0.00 | 0.00 | 0.00 | 98 | 1017.8 |
| 20260508042510 | 52 | 245 | 1.0 | 4.0 | 0.00 | 0.00 | 0.00 | 98 | 1017.7 |
| 20260508042008 | 52 | 246 | 0.0 | 3.0 | 0.00 | 0.00 | 0.00 | 98 | 1017.6 |
| 20260508041505 | 52 | 268 | 0.0 | 5.0 | 0.00 | 0.00 | 0.00 | 98 | 1017.6 |
| 20260508041001 | 52 | 240 | 2.0 | 3.0 | 0.00 | 0.00 | 0.00 | 98 | 1017.6 |
| 20260508040458 | 52 | 255 | 1.0 | 4.0 | 0.00 | 0.00 | 0.00 | 98 | 1017.5 |
| 20260508035956 | 52 | 245 | 0.0 | 3.0 | 0.00 | 0.00 | 0.00 | 98 | 1017.5 |
| 20260508035452 | 52 | 245 | 0.0 | 4.0 | 0.00 | 0.00 | 0.00 | 98 | 1017.4 |
| 20260508034949 | 52 | 214 | 3.0 | 5.0 | 0.00 | 0.00 | 0.00 | 97 | 1017.4 |
| 20260508034446 | 52 | 243 | 1.0 | 3.0 | 0.00 | 0.00 | 0.00 | 97 | 1017.4 |
| 20260508033943 | 52 | 275 | 0.0 | 4.0 | 0.00 | 0.00 | 0.00 | 97 | 1017.4 |
| 20260508033441 | 53 | 230 | 3.0 | 4.0 | 0.00 | 0.00 | 0.00 | 97 | 1017.4 |
| 20260508032938 | 53 | 251 | 0.0 | 4.0 | 0.00 | 0.00 | 0.00 | 97 | 1017.3 |
| 20260508032435 | 53 | 228 | 2.0 | 3.0 | 0.00 | 0.00 | 0.00 | 96 | 1017.4 |
| 20260508031932 | 53 | 241 | 4.0 | 5.0 | 0.00 | 0.00 | 0.00 | 95 | 1017.3 |
| 20260508031429 | 54 | 276 | 2.0 | 5.0 | 0.00 | 0.00 | 0.00 | 94 | 1017.2 |
| 20260508030924 | 54 | 250 | 1.0 | 4.0 | 0.00 | 0.00 | 0.00 | 94 | 1017.3 |
| 20260508030422 | 54 | 205 | 3.0 | 5.0 | 0.00 | 0.00 | 0.00 | 94 | 1017.1 |
| 20260508025919 | 54 | 246 | 2.0 | 4.0 | 0.00 | 0.00 | 0.00 | 93 | 1017.2 |
| 20260508025415 | 54 | 235 | 1.0 | 5.0 | 0.00 | 0.00 | 0.00 | 93 | 1017.0 |
| 20260508024913 | 55 | 276 | 4.0 | 5.0 | 0.00 | 0.00 | 0.00 | 91 | 1017.0 |
| 20260508024409 | 56 | 255 | 1.0 | 5.0 | 0.00 | 0.00 | 0.00 | 90 | 1017.0 |
| 20260508023906 | 56 | 275 | 2.0 | 4.0 | 0.00 | 0.00 | 0.00 | 89 | 1017.0 |
| 20260508023403 | 57 | 255 | 1.0 | 5.0 | 0.00 | 0.00 | 0.00 | 89 | 1017.0 |
| 20260508022859 | 57 | 246 | 0.0 | 4.0 | 0.00 | 0.00 | 0.00 | 88 | 1017.0 |
| 20260508022355 | 58 | 266 | 1.0 | 4.0 | 0.00 | 0.00 | 0.00 | 87 | 1016.9 |
| 20260508021852 | 58 | 251 | 1.0 | 5.0 | 0.00 | 0.00 | 0.00 | 87 | 1017.1 |
| 20260508021348 | 58 | 252 | 2.0 | 3.0 | 0.00 | 0.00 | 0.00 | 87 | 1017.2 |
| 20260508020844 | 58 | 246 | 1.0 | 3.0 | 0.00 | 0.00 | 0.00 | 87 | 1017.0 |
| 20260508020342 | 59 | 242 | 1.0 | 4.0 | 0.00 | 0.00 | 0.00 | 86 | 1017.0 |
| 20260508015839 | 58 | 226 | 2.0 | 5.0 | 0.00 | 0.00 | 0.00 | 87 | 1017.0 |
| 20260508015337 | 59 | 281 | 0.0 | 4.0 | 0.00 | 0.00 | 0.00 | 86 | 1017.0 |
| 20260508014833 | 60 | 262 | 1.0 | 4.0 | 0.00 | 0.00 | 0.00 | 83 | 1017.1 |
| 20260508014332 | 61 | 262 | 0.0 | 4.0 | 0.00 | 0.00 | 0.00 | 82 | 1017.1 |
| 20260508013831 | 61 | 238 | 3.0 | 4.0 | 0.00 | 0.00 | 0.00 | 82 | 1017.0 |
| 20260508013328 | 61 | 260 | 1.0 | 3.0 | 0.00 | 0.00 | 0.00 | 83 | 1017.1 |
| 20260508012826 | 61 | 264 | 2.0 | 4.0 | 0.00 | 0.00 | 0.00 | 82 | 1017.1 |
| 20260508012323 | 63 | 265 | 3.0 | 7.0 | 0.00 | 0.00 | 0.00 | 79 | 1017.1 |
| 20260508011820 | 62 | 247 | 1.0 | 5.0 | 0.00 | 0.00 | 0.00 | 81 | 1017.3 |
| 20260508011318 | 62 | 222 | 1.0 | 3.0 | 0.00 | 0.00 | 0.00 | 81 | 1017.3 |
| 20260508010815 | 62 | 248 | 5.0 | 7.0 | 0.00 | 0.00 | 0.00 | 80 | 1017.3 |
| 20260508010313 | 63 | 255 | 0.0 | 4.0 | 0.00 | 0.00 | 0.00 | 80 | 1017.4 |
| 20260508005809 | 63 | 254 | 2.0 | 5.0 | 0.00 | 0.00 | 0.00 | 79 | 1017.4 |
| 20260508005306 | 61 | 267 | 1.0 | 4.0 | 0.00 | 0.00 | 0.00 | 82 | 1017.5 |
| 20260508004802 | 62 | 227 | 1.0 | 5.0 | 0.00 | 0.00 | 0.00 | 79 | 1017.4 |
| 20260508004258 | 61 | 244 | 0.0 | 5.0 | 0.00 | 0.00 | 0.00 | 82 | 1017.4 |
| 20260508003755 | 62 | 204 | 4.0 | 7.0 | 0.00 | 0.00 | 0.00 | 81 | 1017.3 |
| 20260508003252 | 62 | 234 | 3.0 | 8.0 | 0.00 | 0.00 | 0.00 | 80 | 1017.4 |
| 20260508002748 | 62 | 262 | 3.0 | 7.0 | 0.00 | 0.00 | 0.00 | 80 | 1017.4 |
| 20260508002246 | 63 | 270 | 3.0 | 4.0 | 0.00 | 0.00 | 0.00 | 79 | 1017.5 |
| 20260508001742 | 65 | 246 | 3.0 | 7.0 | 0.00 | 0.00 | 0.00 | 76 | 1017.6 |
| 20260508001237 | 64 | 233 | 1.0 | 5.0 | 0.00 | 0.00 | 0.00 | 77 | 1017.6 |
| 20260508000734 | 64 | 270 | 3.0 | 7.0 | 0.00 | 0.00 | 0.00 | 77 | 1017.6 |
| 20260508000234 | 65 | 231 | 1.0 | 5.0 | 0.00 | 0.00 | 0.00 | 77 | 1017.5 |